Location: Dumbr?vi?a
(45.8833°N, 22.7000°E)
Time: 16:45:36
(UTC+00:00)

Cosmos 1271 Rocket - Pass Details

Date: 03 March 2021
Orbit: 498 x 544 km, 81.2° (Epoch: 11 April)

Event Time Altitude Azimuth Distance (km) Brightness Sun altitude
Rises 16:53:53 0° 347° (NNW) 2,600 6.4 -6.9°
Reaches altitude 10° 16:56:01 10° 345° (NNW) 1,712 5.5 -7.3°
Maximum altitude 16:59:44 69° 262° (W) 541 3.0 -7.9°
Drops below altitude 10° 17:03:27 10° 179° (S) 1,708 5.3 -8.6°
Sets 17:05:35 0° 177° (S) 2,593 6.2 -9.0°
